INTELSAT 39 (IS-39)

Last updated on Thu Apr 09 2026 00:02:52 GMT+0000 (Coordinated Universal Time)

1 44476U 19049B 26098.53820630 .00000036 00000+0 00000+0 0 9997 2 44476 0.0188 219.1400 0000368 303.5924 289.7602 1.00271086 24425
UTC large
Height (km)
Speed (km/s)
/
Latitude / Longitude
Inclination (degrees)
Orbital Period (minutes)
Azimuth
Elevation
Range (km)
Doppler Factor

Next 0 passes for location: London (51.5072 / 0.1276)

Sorry there are no passes over London.